[Date Prev][Date Next][Thread Prev][Thread Next] - [Date Index][Thread Index][Author Index]
2 Line ISS Keps 6-15
- Subject: [sarex] 2 Line ISS Keps 6-15
- From: "Dave Larsen PhD" <doc@xxxxxxxxxxx>
- Date: Tue, 14 Jun 2005 19:23:40 -0700
ISS
1 25544U 98067A 05165.89671494 .00020088 00000-0 14925-3 0 6905
2 25544 051.6455 272.6480 0004067 249.0302 214.8513 15.72830231375320
----
Via the sarex mailing list at AMSAT.ORG courtesy of AMSAT-NA.
To unsubscribe, send "unsubscribe sarex" to Majordomo@amsat.org
AMSAT Home